{"data":{"norad_id":62027,"epoch":"2026-09-21T11:33:02.643840Z","epoch_age_seconds":100756,"freshness":"FRESH","line1":"1 62027U 24213V   26264.48128060  .00007571  00000+0  24119-3 0  9997","line2":"2 62027  53.1605 337.1202 0000889  70.7630 289.3469 15.33563555103157","mean_motion":15.33563555,"eccentricity":8.89e-5,"inclination_deg":53.1605,"raan_deg":337.1202,"arg_perigee_deg":70.763,"mean_anomaly_deg":289.3469,"bstar":0.00024119,"rev_number":10315,"period_min":93.89894506198,"perigee_km":464.5820891217,"apogee_km":465.79883274426,"semimajor_km":6843.327460933,"source":"CELESTRAK","updated_at":"2026-09-22T09:00:49.486008Z"}}